| time (UTC) | temp C | wind direction | speed KPH | gust KPH | rain 1hr cm | rain 24hr cm | rain mn cm | humidity % | barometer mb |
| 20260507051552 | 12 | 275 | 11.3 | 19.3 | 0.00 | 0.00 | 0.00 | 90 | 1020.5 |
| 20260507050052 | 12 | 291 | 9.7 | 24.1 | 0.00 | 0.00 | 0.00 | 90 | 1020.5 |
| 20260507044552 | 12 | 266 | 11.3 | 20.9 | 0.00 | 0.00 | 0.00 | 90 | 1020.5 |
| 20260507043055 | 13 | 310 | 8.0 | 16.1 | 0.00 | 0.00 | 0.00 | 90 | 1020.5 |
| 20260507041552 | 13 | 271 | 6.4 | 14.5 | 0.00 | 0.00 | 0.00 | 89 | 1020.4 |
| 20260507040054 | 13 | 272 | 4.8 | 17.7 | 0.00 | 0.00 | 0.00 | 89 | 1020.1 |
| 20260507034558 | 13 | 284 | 6.4 | 12.9 | 0.00 | 0.00 | 0.00 | 89 | 1020.1 |
| 20260507033051 | 13 | 269 | 9.7 | 16.1 | 0.00 | 0.00 | 0.00 | 88 | 1020.0 |
| 20260507031549 | 13 | 261 | 3.2 | 14.5 | 0.00 | 0.00 | 0.00 | 88 | 1020.0 |
| 20260507030053 | 13 | 263 | 8.0 | 17.7 | 0.00 | 0.00 | 0.00 | 88 | 1019.9 |
| 20260507024556 | 13 | 275 | 12.9 | 19.3 | 0.00 | 0.00 | 0.00 | 88 | 1019.8 |
| 20260507023051 | 13 | 267 | 11.3 | 22.5 | 0.00 | 0.00 | 0.00 | 87 | 1019.8 |
| 20260507021556 | 13 | 277 | 11.3 | 20.9 | 0.00 | 0.00 | 0.00 | 87 | 1019.8 |
| 20260507020054 | 13 | 302 | 12.9 | 20.9 | 0.00 | 0.00 | 0.00 | 86 | 1019.7 |
| 20260507014551 | 13 | 262 | 12.9 | 20.9 | 0.00 | 0.00 | 0.00 | 86 | 1019.8 |
| 20260507013056 | 14 | 273 | 12.9 | 20.9 | 0.00 | 0.00 | 0.00 | 85 | 1019.9 |
| 20260507011553 | 14 | 263 | 14.5 | 29.0 | 0.00 | 0.00 | 0.00 | 85 | 1019.7 |
| 20260507010109 | 14 | 258 | 14.5 | 24.1 | 0.00 | 0.00 | 0.00 | 84 | 1019.6 |
| 20260507004553 | 15 | 260 | 12.9 | 25.7 | 0.00 | 0.00 | 0.00 | 84 | 1019.5 |
| 20260507003050 | 15 | 252 | 11.3 | 20.9 | 0.00 | 0.00 | 0.00 | 84 | 1019.5 |
| 20260507001558 | 15 | 327 | 14.5 | 22.5 | 0.00 | 0.00 | 0.00 | 83 | 1019.4 |
| 20260507000051 | 15 | 279 | 14.5 | 24.1 | 0.00 | 0.00 | 0.00 | 83 | 1019.3 |
| 20260506234602 | 15 | 275 | 16.1 | 29.0 | 0.00 | 0.00 | 0.00 | 84 | 1019.2 |
| 20260506233103 | 15 | 264 | 16.1 | 29.0 | 0.00 | 0.00 | 0.00 | 84 | 1019.2 |
| 20260506231551 | 15 | 302 | 11.3 | 29.0 | 0.00 | 0.00 | 0.00 | 85 | 1019.4 |
| 20260506230053 | 15 | 280 | 17.7 | 27.4 | 0.00 | 0.00 | 0.00 | 84 | 1019.4 |
| 20260506224556 | 15 | 296 | 20.9 | 29.0 | 0.00 | 0.00 | 0.00 | 83 | 1019.5 |
| 20260506223100 | 15 | 267 | 12.9 | 22.5 | 0.00 | 0.00 | 0.00 | 84 | 1019.6 |
| 20260506221600 | 15 | 274 | 19.3 | 27.4 | 0.00 | 0.00 | 0.00 | 84 | 1019.9 |
| 20260506220053 | 15 | 292 | 12.9 | 30.6 | 0.00 | 0.00 | 0.00 | 82 | 1020.1 |
| 20260506214551 | 15 | 277 | 17.7 | 25.7 | 0.00 | 0.00 | 0.00 | 81 | 1020.1 |
| 20260506213054 | 15 | 268 | 16.1 | 27.4 | 0.00 | 0.00 | 0.00 | 81 | 1020.2 |
| 20260506211555 | 15 | 273 | 19.3 | 25.7 | 0.00 | 0.00 | 0.00 | 82 | 1020.3 |
| 20260506210055 | 16 | 302 | 9.7 | 25.7 | 0.00 | 0.00 | 0.00 | 82 | 1020.2 |
| 20260506204554 | 16 | 265 | 16.1 | 29.0 | 0.00 | 0.00 | 0.00 | 81 | 1020.2 |
| 20260506203054 | 16 | 317 | 12.9 | 24.1 | 0.00 | 0.00 | 0.00 | 79 | 1020.3 |
| 20260506201554 | 16 | 309 | 8.0 | 30.6 | 0.00 | 0.00 | 0.00 | 79 | 1020.4 |
| 20260506200056 | 16 | 310 | 16.1 | 29.0 | 0.00 | 0.00 | 0.00 | 78 | 1020.4 |
| 20260506194552 | 15 | 290 | 19.3 | 30.6 | 0.00 | 0.00 | 0.00 | 77 | 1020.4 |
| 20260506193050 | 16 | 304 | 14.5 | 25.7 | 0.00 | 0.00 | 0.00 | 77 | 1020.4 |
| 20260506191557 | 16 | 275 | 9.7 | 29.0 | 0.00 | 0.00 | 0.00 | 78 | 1020.5 |
| 20260506190051 | 16 | 300 | 11.3 | 22.5 | 0.00 | 0.00 | 0.00 | 78 | 1020.6 |
| 20260506184552 | 16 | 298 | 9.7 | 25.7 | 0.00 | 0.00 | 0.00 | 79 | 1020.6 |
| 20260506183050 | 16 | 266 | 14.5 | 24.1 | 0.00 | 0.00 | 0.00 | 78 | 1020.5 |
| 20260506181551 | 16 | 298 | 17.7 | 25.7 | 0.00 | 0.00 | 0.00 | 79 | 1020.6 |
| 20260506180054 | 16 | 294 | 11.3 | 24.1 | 0.00 | 0.00 | 0.00 | 77 | 1020.6 |
| 20260506174600 | 17 | 333 | 8.0 | 25.7 | 0.00 | 0.00 | 0.00 | 75 | 1020.5 |
| 20260506173118 | 17 | 304 | 8.0 | 22.5 | 0.00 | 0.00 | 0.00 | 74 | 1020.2 |
| 20260506171551 | 17 | 26 | 4.8 | 25.7 | 0.00 | 0.00 | 0.00 | 73 | 1020.2 |
| 20260506170053 | 17 | 24 | 6.4 | 20.9 | 0.00 | 0.00 | 0.00 | 73 | 1020.3 |
| 20260506164551 | 16 | 24 | 4.8 | 20.9 | 0.00 | 0.00 | 0.00 | 74 | 1020.4 |
| 20260506163054 | 16 | 47 | 11.3 | 19.3 | 0.00 | 0.00 | 0.00 | 76 | 1020.3 |
| 20260506161600 | 16 | 62 | 11.3 | 20.9 | 0.00 | 0.00 | 0.00 | 77 | 1020.3 |
| 20260506160058 | 16 | 58 | 6.4 | 17.7 | 0.00 | 0.00 | 0.00 | 80 | 1020.2 |
| 20260506154601 | 15 | 360 | 4.8 | 12.9 | 0.00 | 0.00 | 0.00 | 83 | 1020.5 |
| 20260506153049 | 15 | 49 | 9.7 | 17.7 | 0.00 | 0.00 | 0.00 | 86 | 1020.5 |
| 20260506151551 | 13 | 339 | 0.0 | 3.2 | 0.00 | 0.00 | 0.00 | 89 | 1020.5 |
| 20260506150101 | 13 | 0 | 0.0 | 3.2 | 0.00 | 0.00 | 0.00 | 89 | 1020.6 |
| 20260506144608 | 14 | 0 | 0.0 | 1.6 | 0.00 | 0.00 | 0.00 | 91 | 1020.6 |
| 20260506143055 | 13 | 0 | 0.0 | 1.6 | 0.00 | 0.00 | 0.00 | 92 | 1020.5 |
| 20260506141551 | 12 | 0 | 0.0 | 1.6 | 0.00 | 0.00 | 0.00 | 93 | 1020.7 |
| 20260506140105 | 11 | 0 | 0.0 | 1.6 | 0.00 | 0.00 | 0.00 | 92 | 1020.4 |
| 20260506134553 | 11 | 0 | 0.0 | 0.0 | 0.00 | 0.00 | 0.00 | 92 | 1020.1 |
| 20260506133111 | 11 | 0 | 0.0 | 6.4 | 0.00 | 0.00 | 0.00 | 92 | 1019.9 |
| 20260506131550 | 10 | 346 | 4.8 | 6.4 | 0.00 | 0.00 | 0.00 | 92 | 1019.8 |
| 20260506130135 | 10 | 10 | 1.6 | 6.4 | 0.00 | 0.00 | 0.00 | 92 | 1019.7 |
| 20260506124555 | 10 | 11 | 1.6 | 4.8 | 0.00 | 0.00 | 0.00 | 91 | 1019.7 |
| 20260506123053 | 10 | 11 | 3.2 | 4.8 | 0.00 | 0.00 | 0.00 | 91 | 1019.7 |
| 20260506121556 | 11 | 11 | 1.6 | 4.8 | 0.00 | 0.00 | 0.00 | 91 | 1019.6 |
| 20260506120103 | 11 | 11 | 1.6 | 4.8 | 0.00 | 0.00 | 0.00 | 91 | 1019.6 |
| 20260506114554 | 11 | 11 | 3.2 | 4.8 | 0.00 | 0.00 | 0.00 | 91 | 1019.6 |
| 20260506113056 | 11 | 11 | 1.6 | 4.8 | 0.00 | 0.00 | 0.00 | 91 | 1019.6 |
| 20260506111552 | 11 | 11 | 1.6 | 3.2 | 0.00 | 0.00 | 0.00 | 91 | 1019.5 |
| 20260506110054 | 11 | 11 | 3.2 | 4.8 | 0.00 | 0.00 | 0.00 | 91 | 1019.3 |
| 20260506104559 | 11 | 11 | 3.2 | 6.4 | 0.00 | 0.00 | 0.00 | 91 | 1019.3 |
| 20260506103105 | 11 | 11 | 1.6 | 4.8 | 0.00 | 0.00 | 0.00 | 91 | 1019.3 |
| 20260506101553 | 11 | 11 | 0.0 | 1.6 | 0.00 | 0.00 | 0.00 | 90 | 1019.5 |
| 20260506100108 | 11 | 0 | 0.0 | 3.2 | 0.00 | 0.00 | 0.00 | 90 | 1019.5 |
| 20260506094601 | 11 | 11 | 0.0 | 3.2 | 0.00 | 0.00 | 0.00 | 90 | 1019.6 |
| 20260506093051 | 11 | 11 | 0.0 | 4.8 | 0.00 | 0.00 | 0.00 | 90 | 1019.6 |
| 20260506091554 | 11 | 11 | 1.6 | 4.8 | 0.00 | 0.00 | 0.00 | 89 | 1019.6 |
| 20260506090053 | 11 | 11 | 0.0 | 3.2 | 0.00 | 0.00 | 0.00 | 89 | 1019.7 |
| 20260506084556 | 11 | 11 | 0.0 | 1.6 | 0.00 | 0.00 | 0.00 | 89 | 1019.6 |
| 20260506083055 | 11 | 0 | 0.0 | 3.2 | 0.00 | 0.00 | 0.00 | 89 | 1019.5 |
| 20260506081605 | 11 | 11 | 1.6 | 4.8 | 0.00 | 0.00 | 0.00 | 88 | 1019.4 |
| 20260506073053 | 12 | 11 | 0.0 | 3.2 | 0.00 | 0.00 | 0.00 | 87 | 1019.3 |
| 20260506071555 | 12 | 11 | 0.0 | 4.8 | 0.00 | 0.00 | 0.00 | 87 | 1019.2 |
| 20260506061552 | 13 | 0 | 0.0 | 4.8 | 0.00 | 0.00 | 0.00 | 85 | 1018.8 |